Flag for U.S.A. Weather past 2 weeks in Kennebunk, Maine, U.S.A.

Now
57 °F

Clear.


Feels Like: 57 °F
Forecast: 56 / 77 °F
Wind: No wind

Location: Sanford Municipal

Current Time: Jul 2, 2015 at 4:25:26 AM

Latest Report: Jul 2, 2015 at 3:55 AM


Visibility: 9 mi

Pressure: 29.79 "Hg

Humidity: 88%

Dew point: 54 °F

Location of KennebunkLocation

Historic Weather in Kennebunk — Graph

°F

Kennebunk temperature yesterday

Maximum temperature yesterday: 73 °F (at 4:55 PM)
Minimum temperature yesterday: 57 °F (at 1:15 AM)
Average temperature yesterday: 63 °F

Past Weeks' High & Low Weather Summary

 TemperatureHumidityPressure
High81 °F (Jun 19, 1:35 PM)94% (Jun 21, 4:15 AM)30.19 "Hg (Jun 21, 4:15 AM)
Low41 °F (Jun 20, 3:35 AM)27% (Jun 17, 4:15 PM)29.64 "Hg (Jun 23, 6:55 PM)
Average63 °F71%29.94 "Hg
* Reported Jun 17 6:15 AM — Jul 2 3:15 AM, Kennebunk, Weather by CustomWeather, © 2015

Note: Actual official high and low records may vary slightly from our data, if they occured in-between our weather recording intervals... More about our weather records

Advertising

Kennebunk weather history for previous 24 hours

 ConditionsComfort  
Time TempWeatherWind HumidityBarometerVisibility
3:15 AM
Thu, Jul 2
59 °FClear.5 mph88%29.79 "Hg10 mi
2:55 AM61 °FClear.5 mph83%29.78 "Hg10 mi
2:35 AM61 °FClear.5 mph83%29.78 "Hg10 mi
2:15 AM61 °FClear.5 mph83%29.78 "Hg10 mi
1:55 AM61 °FClear.5 mph83%29.78 "Hg10 mi
1:35 AM61 °FClear.7 mph88%29.77 "Hg10 mi
1:15 AM61 °FClear.5 mph83%29.77 "Hg10 mi
12:55 AM61 °FClear.3 mph83%29.76 "Hg6 mi
12:35 AM63 °FClear.No wind83%29.76 "Hg10 mi
12:15 AM63 °FClear.5 mph83%29.76 "Hg10 mi
11:35 PM
Wed, Jul 1
63 °FClear.5 mph83%29.74 "Hg10 mi
11:15 PM63 °FClear.6 mph83%29.74 "Hg10 mi
10:55 PM63 °FClear.No wind83%29.74 "Hg6 mi
10:35 PM63 °FClear.No wind83%29.74 "Hg10 mi
10:15 PM64 °FClear.No wind83%29.74 "Hg10 mi
9:55 PM64 °FClear.3 mph83%29.74 "Hg10 mi
9:35 PM64 °FClear.3 mph88%29.73 "Hg10 mi
9:15 PM66 °FSunny.5 mph83%29.73 "Hg10 mi
8:55 PM66 °FSunny.5 mph88%29.73 "Hg10 mi
8:35 PM66 °FBroken clouds.10 mph88%29.72 "Hg10 mi
8:15 PM68 °FMostly cloudy.8 mph88%29.72 "Hg10 mi
7:55 PM70 °FPartly sunny.6 mph83%29.72 "Hg9 mi
7:35 PM70 °FBroken clouds.3 mph83%29.71 "Hg10 mi
7:15 PM70 °FPassing clouds.No wind83%29.71 "Hg10 mi
6:55 PM72 °FSunny.3 mph78%29.71 "Hg10 mi
6:35 PM72 °FScattered clouds.5 mph78%29.71 "Hg10 mi
5:55 PM72 °FPassing clouds.5 mph78%29.70 "Hg10 mi
5:15 PM72 °FSunny.3 mph78%29.70 "Hg10 mi
4:55 PM73 °FSunny.8 mph74%29.70 "Hg10 mi
4:35 PM72 °FBroken clouds.5 mph73%29.70 "Hg10 mi
4:15 PM72 °FCloudy.6 mph73%29.71 "Hg10 mi
3:55 PM72 °FMostly cloudy.7 mph73%29.71 "Hg10 mi
3:35 PM70 °FMostly cloudy.5 mph83%29.72 "Hg10 mi
3:15 PM68 °FMostly cloudy.7 mph83%29.73 "Hg10 mi
2:55 PM66 °FLow clouds.6 mph83%29.74 "Hg10 mi
2:35 PM64 °FLow clouds.6 mph88%29.73 "Hg10 mi
2:15 PM64 °FLow clouds.7 mph88%29.74 "Hg10 mi
1:55 PM63 °FLow clouds.10 mph83%29.75 "Hg6 mi
1:35 PM63 °FLow clouds.3 mph83%29.75 "Hg10 mi
1:15 PM63 °FLow clouds.3 mph83%29.76 "Hg10 mi
12:55 PM63 °FLow clouds.3 mph88%29.76 "Hg10 mi
12:35 PM63 °FLow clouds.5 mph83%29.77 "Hg10 mi
12:15 PM63 °FMostly cloudy.5 mph88%29.78 "Hg10 mi
11:55 AM63 °FMostly cloudy.3 mph88%29.79 "Hg8 mi
11:35 AM63 °FLow clouds.5 mph83%29.81 "Hg8 mi
11:15 AM61 °FLow clouds.3 mph88%29.81 "Hg10 mi
10:55 AM61 °FLow clouds.7 mph83%29.81 "Hg8 mi
10:35 AM61 °FMostly cloudy.7 mph83%29.82 "Hg5 mi
10:15 AM61 °FMostly cloudy.6 mph83%29.84 "Hg7 mi
9:55 AM61 °FCloudy.7 mph83%29.86 "Hg7 mi
9:35 AM61 °FMore clouds than sun.6 mph83%29.88 "Hg4 mi
9:15 AM61 °FCloudy.3 mph83%29.91 "Hg4 mi
8:55 AM61 °FMostly cloudy.6 mph88%29.92 "Hg9 mi
8:35 AM61 °FMore clouds than sun.5 mph88%29.91 "Hg6 mi
8:15 AM61 °FLow clouds.3 mph88%29.90 "Hg3 mi
7:55 AM61 °FLow clouds.No wind88%29.90 "Hg7 mi
7:35 AM61 °FLow clouds.3 mph88%29.89 "Hg8 mi
7:15 AM61 °FLow clouds.3 mph88%29.90 "Hg8 mi
6:55 AM61 °FLow clouds.No wind88%29.89 "Hg7 mi
6:35 AM61 °FLow clouds.No wind83%29.89 "Hg7 mi
6:15 AM59 °FLow clouds.3 mph88%29.89 "Hg6 mi
5:55 AM59 °FLow clouds.No wind88%29.89 "Hg8 mi
5:35 AM59 °FPartly cloudy.No wind88%29.90 "Hg8 mi
5:15 AM57 °FPassing clouds.No wind88%29.90 "Hg7 mi
4:55 AM59 °FPassing clouds.No wind88%29.91 "Hg7 mi
4:35 AM59 °FPassing clouds.No wind88%29.91 "Hg10 mi
4:15 AM59 °FOvercast.No wind88%29.92 "Hg10 mi
Weather by CustomWeather, © 2015

See weather overviewHow to use our weather pages